Location: Newark
(25.0000°N, 73.5000°E)
Time: 16:41:58
(UTC+00:00)

Transit 4A - All Passes

Search period start: 27 February 2021 00:00
Search period end: 09 March 2021 00:00
Orbit: 866 x 978 km, 66.8° (Epoch: 26 February)

Date Brightness Start Highest point End Pass type
(mag) Time Alt. Az. Time Alt. Az. Time Alt. Az.
27 Feb - 05:16:27 10° S 05:22:42 59° ESE 05:28:55 10° NNE daylight
27 Feb - 07:05:16 10° W 07:09:20 17° WNW 07:13:24 10° NNW daylight
27 Feb - 14:31:03 10° NNE 14:33:47 13° NE 14:36:29 10° E visible
27 Feb - 16:14:41 10° NNW 16:20:34 67° WSW 16:26:18 10° SSE visible
28 Feb - 05:25:33 10° SSW 05:31:57 88° WNW 05:38:20 10° NNE daylight
28 Feb - 07:17:43 10° WNW 07:18:59 11° NW 07:20:16 10° NW daylight
28 Feb - 14:38:56 10° N 14:43:22 21° ENE 14:47:43 10° ESE visible
28 Feb - 16:24:17 10° NW 16:29:45 40° WSW 16:35:06 10° S visible
01 Mar - 03:51:40 10° SE 03:55:26 16° ESE 03:59:11 10° ENE daylight
01 Mar - 05:35:01 10° SW 05:41:16 56° WNW 05:47:30 10° NNE daylight
01 Mar - 14:47:30 10° N 14:52:51 34° ENE 14:58:03 10° SE visible
01 Mar - 16:34:17 10° NW 16:38:53 24° WSW 16:43:25 10° SSW visible
02 Mar - 03:59:19 10° SSE 04:04:33 27° ESE 04:09:45 10° NE daylight
02 Mar - 05:44:53 10° SW 05:50:39 36° WNW 05:56:26 10° N daylight
02 Mar - 14:56:25 10° NNW 15:02:14 55° ENE 15:07:53 10° SE visible
02 Mar - 16:45:05 10° WNW 16:47:58 14° WSW 16:50:49 10° SW visible
03 Mar - 04:07:44 10° S 04:13:43 43° ESE 04:19:40 10° NE daylight
03 Mar - 05:55:13 10° WSW 06:00:08 23° WNW 06:05:03 10° N daylight
03 Mar - 15:05:36 10° NNW 15:11:32 89° ENE 15:17:20 10° SSE visible
04 Mar - 04:16:36 10° SSW 04:22:56 70° ESE 04:29:15 10° NNE daylight
04 Mar - 06:06:19 10° W 06:09:43 15° NW 06:13:06 10° NNW daylight
04 Mar - 13:30:40 10° NNE 13:34:08 16° ENE 13:37:34 10° E visible
04 Mar - 15:15:01 10° NNW 15:20:45 56° WSW 15:26:24 10° S visible
05 Mar - 02:44:44 10° ESE 02:46:33 11° ESE 02:48:20 10° E daylight
05 Mar - 04:25:50 10° SSW 04:32:12 75° WNW 04:38:34 10° NNE daylight
05 Mar - 13:38:52 10° N 13:43:41 25° ENE 13:48:23 10° ESE visible
05 Mar - 15:24:44 10° NW 15:29:56 33° WSW 15:35:03 10° S visible
06 Mar - 02:51:13 10° SSE 02:55:37 20° ESE 03:00:01 10° ENE daylight
06 Mar - 04:35:26 10° SW 04:41:33 48° WNW 04:47:39 10° N daylight
06 Mar - 13:47:35 10° N 13:53:07 40° ENE 13:58:32 10° SE visible
06 Mar - 15:34:56 10° WNW 15:39:02 20° WSW 15:43:07 10° SSW visible
07 Mar - 02:59:12 10° SSE 03:04:45 32° ESE 03:10:17 10° NE daylight
07 Mar - 04:45:27 10° WSW 04:50:58 31° WNW 04:56:29 10° N daylight
07 Mar - 13:56:35 10° NNW 14:02:29 65° ENE 14:08:13 10° SSE visible
07 Mar - 15:46:33 10° W 15:48:07 11° WSW 15:49:41 10° WSW visible
08 Mar - 03:07:47 10° S 03:13:56 52° ESE 03:20:04 10° NE daylight
08 Mar - 04:56:00 10° WSW 05:00:28 20° WNW 05:04:57 10° NNW daylight
08 Mar - 12:23:05 10° NE 12:24:52 11° NE 12:26:37 10° ENE daylight
08 Mar - 14:05:51 10° NNW 14:11:45 77° WSW 14:17:31 10° SSE visible
